• In Portugal
  • List of Countries
  • For 7 days
  • Water Temperature
  • Satellite Maps
  • Weather Map
  • Weather Widgets
  • user-avatar
    Login

    Hourly Weather Batovo

    Today, 21 May, Monday

    Time Temperature Precipitation Wind Pressure Humidity
    00:00 +8°C° 0 mm 0 mps 762 mmHg 71%
    01:00 +8°C° 0 mm 0 mps 762 mmHg 72%
    02:00 +7°C° 0 mm 0 mps 762 mmHg 77%
    03:00 +7°C° 0 mm 0 mps 762 mmHg 76%
    04:00 +8°C° 0 mm 0 mps 763 mmHg 76%
    05:00 +8°C° 0 mm 0 mps 763 mmHg 75%
    06:00 +12°C° 0 mm 1 mps 763 mmHg 68%
    07:00 +14°C° 0 mm 1 mps 763 mmHg 61%
    08:00 +18°C° 0 mm 1 mps 763 mmHg 54%
    09:00 +19°C° 0 mm 1 mps 763 mmHg 49%
    10:00 +20°C° 0 mm 2 mps 763 mmHg 45%
    11:00 +21°C° 0 mm 2 mps 763 mmHg 41%
    12:00 +21°C° 0 mm 2 mps 763 mmHg 40%
    13:00 +22°C° 0 mm 3 mps 763 mmHg 39%
    14:00 +22°C° 0 mm 3 mps 762 mmHg 38%
    15:00 +22°C° 0 mm 3 mps 762 mmHg 40%
    16:00 +22°C° 0 mm 3 mps 762 mmHg 42%
    17:00 +22°C° 0 mm 3 mps 762 mmHg 44%
    18:00 +20°C° 0 mm 2 mps 762 mmHg 53%
    19:00 +18°C° 0 mm 2 mps 762 mmHg 62%
    20:00 +16°C° 0 mm 2 mps 762 mmHg 70%
    21:00 +14°C° 0 mm 2 mps 762 mmHg 72%
    22:00 +13°C° 0 mm 2 mps 762 mmHg 74%
    23:00 +12°C° 0 mm 2 mps 762 mmHg 77%

    Tomorrow, 22 May, Tuesday

    Time Temperature Precipitation Wind Pressure Humidity
    00:00 +12°C° 0 mm 1 mps 762 mmHg 78%
    01:00 +11°C° 0 mm 1 mps 762 mmHg 79%
    02:00 +10°C° 0 mm 1 mps 762 mmHg 80%
    03:00 +11°C° 0 mm 1 mps 762 mmHg 79%
    04:00 +11°C° 0 mm 1 mps 762 mmHg 79%
    05:00 +11°C° 0 mm 1 mps 762 mmHg 79%
    06:00 +13°C° 0 mm 2 mps 762 mmHg 72%
    07:00 +15°C° 0 mm 2 mps 761 mmHg 66%
    08:00 +17°C° 0 mm 3 mps 761 mmHg 59%
    09:00 +17°C° 0 mm 3 mps 761 mmHg 58%
    10:00 +18°C° 0 mm 3 mps 761 mmHg 57%
    11:00 +18°C° 0 mm 4 mps 760 mmHg 56%
    12:00 +17°C° 0 mm 3 mps 760 mmHg 58%
    13:00 +17°C° 0 mm 3 mps 760 mmHg 60%
    14:00 +16°C° 0 mm 3 mps 759 mmHg 63%
    15:00 +16°C° 0 mm 2 mps 759 mmHg 66%
    16:00 +16°C° 0 mm 2 mps 759 mmHg 70%
    17:00 +15°C° 0 mm 2 mps 758 mmHg 74%
    18:00 +15°C° 0 mm 1 mps 758 mmHg 78%
    19:00 +14°C° 0 mm 1 mps 758 mmHg 83%
    20:00 +13°C° 0 mm 1 mps 758 mmHg 88%
    21:00 +13°C° 0 mm 1 mps 758 mmHg 91%
    22:00 +12°C° 0 mm 1 mps 758 mmHg 93%
    23:00 +12°C° 0 mm 1 mps 758 mmHg 96%

    Day after tomorrow, 23 May, Wednesday

    Time Temperature Precipitation Wind Pressure Humidity
    00:00 +11°C° 0 mm 1 mps 757 mmHg 96%
    01:00 +11°C° 0 mm 1 mps 757 mmHg 97%
    02:00 +11°C° 0 mm 1 mps 757 mmHg 97%
    03:00 +11°C° 0 mm 1 mps 757 mmHg 97%
    04:00 +11°C° 0 mm 1 mps 757 mmHg 97%
    05:00 +11°C° 0 mm 1 mps 757 mmHg 96%
    06:00 +13°C° 0.1 mm 1 mps 757 mmHg 89%
    07:00 +15°C° 0.1 mm 1 mps 757 mmHg 82%
    08:00 +18°C° 0.1 mm 1 mps 757 mmHg 76%
    09:00 +19°C° 1 mm 1 mps 757 mmHg 74%
    10:00 +20°C° 1 mm 1 mps 757 mmHg 72%
    11:00 +21°C° 1 mm 1 mps 756 mmHg 70%
    12:00 +21°C° 1.4 mm 1 mps 756 mmHg 70%
    13:00 +21°C° 1.4 mm 1 mps 756 mmHg 70%
    14:00 +21°C° 1.4 mm 1 mps 756 mmHg 70%
    15:00 +21°C° 0.3 mm 1 mps 756 mmHg 69%
    16:00 +21°C° 0.3 mm 1 mps 756 mmHg 67%
    17:00 +20°C° 0.3 mm 2 mps 756 mmHg 66%
    18:00 +19°C° 0.1 mm 2 mps 757 mmHg 73%
    19:00 +17°C° 0.1 mm 2 mps 757 mmHg 80%
    20:00 +15°C° 0.1 mm 2 mps 757 mmHg 87%
    21:00 +14°C° 0 mm 2 mps 758 mmHg 90%
    22:00 +13°C° 0 mm 2 mps 758 mmHg 92%
    23:00 +12°C° 0 mm 2 mps 758 mmHg 95%

    24 May, Thursday

    Time Temperature Precipitation Wind Pressure Humidity
    00:00 +12°C° 0 mm 2 mps 759 mmHg 95%
    01:00 +11°C° 0 mm 1 mps 759 mmHg 96%
    02:00 +11°C° 0 mm 1 mps 759 mmHg 96%
    03:00 +11°C° 0 mm 1 mps 759 mmHg 96%
    04:00 +11°C° 0 mm 1 mps 760 mmHg 95%
    05:00 +11°C° 0 mm 1 mps 760 mmHg 94%
    06:00 +13°C° 0 mm 1 mps 760 mmHg 87%
    07:00 +15°C° 0 mm 2 mps 760 mmHg 80%
    08:00 +17°C° 0 mm 2 mps 760 mmHg 73%
    09:00 +18°C° 0 mm 2 mps 760 mmHg 67%
    10:00 +20°C° 0 mm 2 mps 760 mmHg 61%
    11:00 +23°C° 0 mm 2 mps 760 mmHg 55%
    12:00 +22°C° 0.1 mm 3 mps 760 mmHg 54%
    13:00 +24°C° 0.1 mm 3 mps 760 mmHg 53%
    14:00 +24°C° 0.1 mm 3 mps 760 mmHg 53%
    15:00 +24°C° 0.2 mm 3 mps 760 mmHg 57%
    16:00 +22°C° 0.2 mm 3 mps 760 mmHg 61%
    17:00 +21°C° 0.2 mm 3 mps 760 mmHg 66%
    18:00 +20°C° 0 mm 3 mps 760 mmHg 71%
    19:00 +18°C° 0 mm 3 mps 761 mmHg 77%
    20:00 +17°C° 0 mm 3 mps 761 mmHg 83%
    21:00 +16°C° 0 mm 3 mps 762 mmHg 80%
    22:00 +13°C° 0 mm 3 mps 762 mmHg 77%
    23:00 +12°C° 0 mm 3 mps 763 mmHg 75%

    25 May, Friday

    Time Temperature Precipitation Wind Pressure Humidity
    00:00 +11°C° 0 mm 3 mps 763 mmHg 72%
    01:00 +10°C° 0 mm 3 mps 763 mmHg 70%
    02:00 +9°C° 0 mm 3 mps 764 mmHg 67%
    03:00 +9°C° 0 mm 3 mps 764 mmHg 67%
    04:00 +8°C° 0 mm 3 mps 764 mmHg 67%
    05:00 +8°C° 0 mm 3 mps 765 mmHg 67%
    06:00 +9°C° 0 mm 3 mps 765 mmHg 62%
    07:00 +11°C° 0 mm 3 mps 765 mmHg 57%
    08:00 +12°C° 0 mm 3 mps 765 mmHg 53%
    09:00 +13°C° 0 mm 3 mps 765 mmHg 49%
    10:00 +16°C° 0 mm 3 mps 765 mmHg 45%
    11:00 +17°C° 0 mm 3 mps 765 mmHg 41%
    12:00 +18°C° 0 mm 3 mps 765 mmHg 40%
    13:00 +18°C° 0 mm 3 mps 765 mmHg 39%
    14:00 +19°C° 0 mm 3 mps 765 mmHg 39%
    15:00 +19°C° 0 mm 3 mps 765 mmHg 40%
    16:00 +18°C° 0 mm 3 mps 764 mmHg 41%
    17:00 +18°C° 0 mm 3 mps 764 mmHg 43%
    18:00 +16°C° 0 mm 3 mps 765 mmHg 50%
    19:00 +14°C° 0 mm 2 mps 765 mmHg 58%
    20:00 +13°C° 0 mm 2 mps 765 mmHg 66%
    21:00 +12°C° 0 mm 2 mps 765 mmHg 67%
    22:00 +10°C° 0 mm 1 mps 765 mmHg 68%
    23:00 +9°C° 0 mm 1 mps 766 mmHg 69%

    26 May, Saturday

    Time Temperature Precipitation Wind Pressure Humidity
    00:00 +9°C° 0 mm 1 mps 766 mmHg 70%
    01:00 +8°C° 0 mm 1 mps 767 mmHg 70%
    02:00 +8°C° 0 mm 1 mps 767 mmHg 71%
    03:00 +8°C° 0 mm 1 mps 767 mmHg 71%
    04:00 +9°C° 0 mm 1 mps 767 mmHg 71%
    05:00 +8°C° 0 mm 0 mps 767 mmHg 71%
    06:00 +11°C° 0 mm 0 mps 767 mmHg 63%
    07:00 +14°C° 0 mm 1 mps 767 mmHg 55%
    08:00 +16°C° 0 mm 1 mps 767 mmHg 48%
    09:00 +19°C° 0 mm 1 mps 767 mmHg 44%
    10:00 +21°C° 0 mm 1 mps 767 mmHg 40%
    11:00 +22°C° 0 mm 1 mps 767 mmHg 36%
    12:00 +22°C° 0 mm 1 mps 767 mmHg 36%
    13:00 +23°C° 0 mm 1 mps 766 mmHg 35%
    14:00 +23°C° 0 mm 1 mps 766 mmHg 35%
    15:00 +23°C° 0 mm 1 mps 766 mmHg 37%
    16:00 +22°C° 0 mm 1 mps 765 mmHg 39%
    17:00 +22°C° 0 mm 1 mps 765 mmHg 42%
    18:00 +20°C° 0 mm 1 mps 765 mmHg 50%
    19:00 +18°C° 0 mm 1 mps 765 mmHg 59%
    20:00 +15°C° 0 mm 1 mps 764 mmHg 67%
    21:00 +14°C° 0 mm 1 mps 764 mmHg 68%
    22:00 +13°C° 0 mm 1 mps 765 mmHg 69%
    23:00 +12°C° 0 mm 1 mps 765 mmHg 70%
    Show more